Daneborg

KL  EN  DA
ASIAQ
Weather Now GREENLAND SURVEY
Updated [WGT/WGST] Temperature [°C] Wind [m/s] Air pressure [hPa] Relative humidity [%] Precipitation [mm]
Present Wind chill Speed Max
17.01 13:00-19,30,0n/an/a101783n/a
17.01 12:00-20,10,0n/an/a101783n/a
17.01 11:00-20,40,0n/an/a101781n/a
17.01 10:00-20,60,0n/an/a101781n/a
17.01 09:00-20,20,0n/an/a101783n/a
17.01 08:00-23,10,0n/an/a101780n/a
17.01 07:00-21,40,0n/an/a101781n/a
17.01 06:00-20,90,0n/an/a101781n/a
17.01 05:00-21,60,0n/an/a101681n/a
17.01 04:00-20,10,0n/an/a101682n/a
17.01 03:00-22,10,0n/an/a101582n/a
17.01 02:00-22,20,0n/an/a101581n/a
17.01 01:00-24,00,0n/an/a101579n/a
17.01 00:00-22,20,0n/an/a101583n/a
16.01 23:00-21,90,0n/an/a101581n/a
16.01 22:00-24,50,0n/an/a101579n/a
16.01 21:00-24,40,0n/an/a101578n/a
16.01 20:00n/an/an/an/an/an/an/a
16.01 19:00-23,40,0n/an/a101580n/a
16.01 18:00-22,60,0n/an/a101480n/a
16.01 17:00-22,50,0n/an/a101480n/a
16.01 16:00-22,10,0n/an/a101381n/a
16.01 15:00-22,10,0n/an/a101383n/a
16.01 14:00-21,90,0n/an/a101381n/a
16.01 13:00-20,40,0n/an/a101383n/a
Position: (74.3075,-20.21694444)

[Back]